Regional Weather Roundup
Issued by NWS

Home | Current Version | Previous Version | Graphics & Text | Print | Product List | Glossary On
Versions: 1 2 3 4 5 6 7 8 9 10 11 12 13 14 15 16 17 18 19 20 21 22 23 24 25 26 27 28 29 30 31 32 33 34 35 36 37 38 39 40 41 42 43 44 45 46 47 48 49 50
000
ASUS43 KIND 200809
RWRIN

WEATHER ROUNDUP FOR INDIANA
NATIONAL WEATHER SERVICE INDIANAPOLIS IN
400 AM EDT MON OCT 20 2014

NOTE: "FAIR" INDICATES FEW OR NO CLOUDS BELOW 12,000 FEET WITH NO
SIGNIFICANT WEATHER AND/OR OBSTRUCTIONS TO VISIBILITY.

* - STATION DOES NOT REPORT WEATHER SUCH AS PRECIPITATION OR FOG.

+ - STATION NOT QUALITY CONTROLLED BY THE NATIONAL WEATHER SERVICE.
    USE DATA WITH CAUTION...ESPECIALLY DEWPOINT AND RELATIVE
    HUMIDITY OBSERVATIONS.

INZ001>003-010>013-019-020-200900-
NORTHWEST INDIANA

CITY           SKY/WX    TMP DP  RH WIND       PRES   REMARKS
GARY /AIRPORT/ CLOUDY    53  45  73 S7        29.87F
KNOX *+        CLOUDY    48  42  79 SW9       29.90F
LA PORTE +     CLOUDY    50  46  84 SW9       29.90F
MICHIGAN CITY+ CLOUDY    48  41  76 SW13G20   29.88F
MONTICELLO +   CLOUDY    47  43  88 S7        29.93F
RENSSELAER +   CLOUDY    46  45  93 S7        29.91F
VALPARAISO     CLOUDY    48  43  82 S9        29.89F

$$

LMZ046-743>745-200900-
SOUTHERN LAKE MICHIGAN

STATION/POSITION TIME  TEMP WIND        PRES
                       AIR  DIR/SP/G
                 (UTC) (F)  (DEG/KT/KT) (MB)
MICHIGAN CITY    0800   51  170/ 14/ 19   N/A

$$

INZ004-005-014>016-021>024-200900-
NORTH CENTRAL INDIANA

CITY           SKY/WX    TMP DP  RH WIND       PRES   REMARKS
GOSHEN         CLOUDY    48  43  82 SW12      29.91F
LOGANSPORT +   CLOUDY    46  41  81 SW9       29.95F
PERU/GRISSOM   CLOUDY    48  47  95 SW10      29.94F
ROCHESTER +    CLOUDY    50  45  81 S7        29.93F
SOUTH BEND     CLOUDY    50  43  77 SW15      29.89F
WARSAW +       CLOUDY    48  43  81 SW6       29.92F

$$

INZ006>009-017-018-025>027-200900-
NORTHEAST INDIANA

CITY           SKY/WX    TMP DP  RH WIND       PRES   REMARKS
ANGOLA *+      CLOUDY    46  37  71 S6        29.92F
AUBURN +       CLOUDY    45  39  81 S3        29.95F
FORT WAYNE     CLOUDY    45  41  86 S7        29.96F
HUNTINGTON +   CLOUDY    47  42  85 SW6       29.95F

$$

INZ028-029-035-036-043>045-051>053-200900-
WEST CENTRAL INDIANA

CITY           SKY/WX    TMP DP  RH WIND       PRES   REMARKS
GREENCASTLE +  CLOUDY    48  43  81 S3        29.99F
LAFAYETTE      CLOUDY    47  42  83 SW5       29.95F
TERRE HAUTE    CLOUDY    49  44  83 S7        30.00F

$$

INZ030>032-037>040-046>048-054>057-064-065-200900-
CENTRAL INDIANA

CITY           SKY/WX    TMP DP  RH WIND       PRES   REMARKS
CP ATTERBURY + CLOUDY    45  43  93 CALM      30.02F
FRANKFORT +    CLOUDY    48  43  83 S6        29.97F
GREENWOOD *+   CLOUDY    46  41  81 S5        30.00
INDIANAPOLIS   CLOUDY    47  42  83 S8        29.99F
-EAGLE CREEK   CLOUDY    47  42  83 S5        29.98F
KOKOMO *+      CLOUDY    48  41  76 SW13      29.96F
MARION +       CLOUDY    47  41  80 SW7       29.97F HAZE
MT COMFORT *+  CLOUDY    46  41  81 S7        30.00F
SHELBYVILLE    CLOUDY    48  42  80 S8        30.00F
ZIONSVILLE +   CLOUDY    48  41  76 SW6       29.99S

$$

INZ033-034-041-042-049-050-058-059-200900-
EAST CENTRAL INDIANA

CITY           SKY/WX    TMP DP  RH WIND       PRES   REMARKS
MUNCIE         CLOUDY    49  42  77 SW7       29.97F

$$

INZ060-061-067>069-081>083-085>088-200900-
SOUTHWEST INDIANA

CITY           SKY/WX    TMP DP  RH WIND       PRES   REMARKS
EVANSVILLE     CLOUDY    47  44  90 CALM      30.06S
HUNTINGBURG *+ CLOUDY    46  43  87 SW5       30.05F
WASHINGTON +   CLOUDY    50  46  84 S7        30.02F

$$

INZ062-063-066-070>080-084-089>092-200900-
SOUTH CENTRAL AND SOUTHEAST INDIANA

CITY           SKY/WX    TMP DP  RH WIND       PRES   REMARKS
BEDFORD +      MOCLDY    46  43  87 CALM      30.04
BLOOMINGTON    CLOUDY    48  43  82 S6        30.02S
NORTH VERNON + CLOUDY    46  46 100 S5        30.04F

$$




USA.gov is the U.S. government's official web portal to all federal, state and local government web resources and services.